Flag for U.S.A. Weather past 2 weeks in Lexington, Virginia, U.S.A.

Now
41 °F

Sunny.


Feels Like: 34 °F
Forecast: 27 / 55 °F
Wind: 10 mph from West

Location: Hot Springs / Ingalls

Current Time: Dec 26, 2014 at 10:47:37 AM

Latest Report: Dec 26, 2014 at 10:15 AM


Visibility: 10 mi

Pressure: 30.25 "Hg

Humidity: 31%

Dew point: 12 °F

Location of LexingtonLocation

Historic Weather in Lexington — Graph

°F

Lexington temperature yesterday

Maximum temperature yesterday: 41 °F (at 12:15 AM)
Minimum temperature yesterday: 30 °F (at 9:15 PM)
Average temperature yesterday: 34 °F

Past Weeks' High & Low Weather Summary

 TemperatureHumidityPressure
High57 °F (Dec 23, 1:55 PM)100% (Dec 13, 6:55 PM)30.25 "Hg (Dec 13, 6:55 PM)
Low20 °F (Dec 18, 7:55 AM)31% (Dec 12, 1:55 PM)29.57 "Hg (Dec 24, 7:15 PM)
Average34 °F84%29.97 "Hg
* Reported Dec 11 9:15 AM — Dec 26 9:55 AM, Lexington, Weather by CustomWeather, © 2014

Note: Actual official high and low records may vary slightly from our data, if they occured in-between our weather recording intervals... More about our weather records

Advertising

Lexington weather history for previous 24 hours

 ConditionsComfort  
Time TempWeatherWind HumidityBarometerVisibility
9:55 AM
Dec 26
40 °FSunny.10 mph32%30.25 "Hg10 mi
9:15 AM39 °FSunny.13 mph33%30.22 "Hg10 mi
8:55 AM37 °FSunny.13 mph41%30.22 "Hg10 mi
8:35 AM36 °FSunny.13 mph47%30.21 "Hg10 mi
8:15 AM36 °FSunny.13 mph46%30.21 "Hg10 mi
7:55 AM35 °FSunny.14 mph51%30.20 "Hg10 mi
7:35 AM35 °FSunny.13 mph41%30.21 "Hg10 mi
7:15 AM35 °FClear.13 mph49%30.20 "Hg10 mi
6:55 AM32 °FClear.13 mph76%30.20 "Hg10 mi
6:35 AM32 °FClear.12 mph78%30.20 "Hg10 mi
6:15 AM32 °FClear.12 mph79%30.18 "Hg10 mi
5:55 AM32 °FClear.12 mph73%30.18 "Hg10 mi
5:35 AM31 °FClear.13 mph85%30.16 "Hg10 mi
5:15 AM31 °FClear.14 mph86%30.16 "Hg10 mi
4:55 AM32 °FClear.15 mph85%30.15 "Hg10 mi
4:35 AM31 °FClear.14 mph99%30.16 "Hg10 mi
4:15 AM31 °FClear.18 mph99%30.16 "Hg10 mi
3:55 AM31 °FClear.17 mph92%30.16 "Hg10 mi
3:35 AM31 °FClear.16 mph88%30.16 "Hg10 mi
3:15 AM31 °FClear.16 mph88%30.16 "Hg10 mi
2:55 AM31 °FClear.14 mph84%30.15 "Hg10 mi
2:35 AM31 °FClear.13 mph87%30.13 "Hg10 mi
2:15 AM31 °FClear.12 mph85%30.12 "Hg10 mi
1:55 AM31 °FClear.16 mph82%30.12 "Hg10 mi
1:35 AM32 °FClear.13 mph82%30.11 "Hg10 mi
1:15 AM32 °FClear.14 mph81%30.12 "Hg10 mi
12:55 AM31 °FClear.14 mph83%30.11 "Hg10 mi
12:35 AM31 °FClear.14 mph83%30.12 "Hg10 mi
12:15 AM31 °FClear.15 mph84%30.12 "Hg10 mi
11:55 PM
Dec 25
31 °FClear.15 mph92%30.12 "Hg10 mi
11:35 PM31 °FClear.15 mph90%30.12 "Hg10 mi
11:15 PM30 °FClear.18 mph96%30.12 "Hg10 mi
10:55 PM30 °FClear.17 mph98%30.12 "Hg10 mi
10:30 PM30 °FClear.21 mph100%30.12 "Hg10 mi
9:35 PM30 °FClear.21 mph100%30.13 "Hg10 mi
9:15 PM30 °FClear.17 mph98%30.14 "Hg10 mi
8:55 PM31 °FClear.18 mph88%30.13 "Hg10 mi
8:15 PM31 °FClear.17 mph85%30.10 "Hg10 mi
7:55 PM31 °FClear.21 mph86%30.09 "Hg10 mi
7:15 PM31 °FClear.18 mph87%30.08 "Hg10 mi
6:55 PM31 °FClear.20 mph86%30.08 "Hg10 mi
6:35 PM31 °FClear.17 mph85%30.07 "Hg10 mi
6:15 PM31 °FClear.18 mph85%30.05 "Hg10 mi
5:55 PM31 °FClear.20 mph82%30.04 "Hg10 mi
5:15 PM32 °FClear.18 mph83%30.02 "Hg10 mi
4:55 PM32 °FSunny.14 mph79%30.02 "Hg10 mi
4:15 PM33 °FSunny.20 mph78%30.02 "Hg10 mi
3:55 PM33 °FSunny.21 mph78%30.02 "Hg10 mi
3:35 PM34 °FScattered clouds.20 mph77%30.01 "Hg10 mi
3:15 PM34 °FOvercast.18 mph78%30.01 "Hg10 mi
2:55 PM33 °FOvercast.17 mph81%30.00 "Hg10 mi
2:35 PM33 °FOvercast.20 mph79%29.99 "Hg10 mi
2:15 PM33 °FOvercast.24 mph80%29.98 "Hg10 mi
1:55 PM33 °FOvercast.23 mph79%29.97 "Hg10 mi
1:35 PM34 °FOvercast.17 mph78%29.96 "Hg10 mi
1:15 PM34 °FOvercast.23 mph78%29.95 "Hg10 mi
12:55 PM34 °FOvercast.20 mph80%29.94 "Hg10 mi
12:35 PM35 °FOvercast.20 mph77%29.94 "Hg10 mi
12:15 PM35 °FOvercast.18 mph74%29.93 "Hg10 mi
11:55 AM35 °FOvercast.23 mph76%29.92 "Hg10 mi
11:35 AM35 °FOvercast.30 mph75%29.92 "Hg10 mi
11:15 AM34 °FOvercast.23 mph78%29.93 "Hg10 mi
10:15 AM33 °FOvercast.24 mph78%29.90 "Hg10 mi
Weather by CustomWeather, © 2014

See weather overviewHow to use our weather pages